TimeMDT,TemperatureF,Dew PointF,Humidity,Sea Level PressureIn,VisibilityMPH,Wind Direction,Wind SpeedMPH,Gust SpeedMPH,PrecipitationIn,Events,Conditions,WindDirDegrees,DateUTC
12:12 AM,59.0,57.2,94,29.88,1.5,SE,9.2,-,0.00,Rain,Light Rain,130,2013-05-27 06:12:00
12:47 AM,59.0,59.0,100,29.88,2.0,SE,4.6,-,0.02,Rain,Light Rain,130,2013-05-27 06:47:00
12:52 AM,59.0,59.0,100,29.86,2.0,ESE,3.5,-,0.02,,Overcast,120,2013-05-27 06:52:00
1:14 AM,59.0,57.2,94,29.91,3.0,NW,10.4,-,0.00,Rain,Light Rain,320,2013-05-27 07:14:00
1:26 AM,59.0,59.0,100,29.90,4.0,NNW,8.1,-,0.01,Rain-Thunderstorm,Light Rain,330,2013-05-27 07:26:00
1:38 AM,60.8,57.2,88,29.87,6.0,ENE,11.5,-,0.02,Rain-Thunderstorm,Light Rain,60,2013-05-27 07:38:00
1:50 AM,59.0,57.2,94,29.85,7.0,East,11.5,20.7,0.02,Thunderstorm,Mostly Cloudy,80,2013-05-27 07:50:00
1:52 AM,59.0,57.9,96,29.80,7.0,East,13.8,-,0.02,Thunderstorm,Scattered Clouds,90,2013-05-27 07:52:00
1:54 AM,59.0,57.2,94,29.84,7.0,East,11.5,-,N/A,,Scattered Clouds,90,2013-05-27 07:54:00
2:02 AM,59.0,57.2,94,29.86,7.0,North,5.8,-,N/A,,Mostly Cloudy,360,2013-05-27 08:02:00
2:52 AM,57.9,57.0,97,29.80,8.0,ENE,5.8,-,N/A,,Overcast,70,2013-05-27 08:52:00
3:25 AM,57.2,55.4,94,29.82,1.8,East,11.5,-,N/A,,Overcast,90,2013-05-27 09:25:00
3:40 AM,57.2,55.4,94,29.82,3.0,East,10.4,-,N/A,,Overcast,90,2013-05-27 09:40:00
3:52 AM,57.0,55.9,96,29.78,3.0,ESE,8.1,-,N/A,,Overcast,110,2013-05-27 09:52:00
3:56 AM,57.2,55.4,94,29.82,1.8,ESE,8.1,-,N/A,,Overcast,110,2013-05-27 09:56:00
4:17 AM,57.2,55.4,94,29.82,0.5,ESE,9.2,-,N/A,Fog,Fog,120,2013-05-27 10:17:00
4:30 AM,57.2,55.4,94,29.82,0.2,ESE,9.2,-,N/A,Fog,Fog,120,2013-05-27 10:30:00
4:52 AM,55.9,55.9,100,29.79,0.2,SE,9.2,-,N/A,Fog,Fog,130,2013-05-27 10:52:00
5:17 AM,55.4,55.4,100,29.83,0.2,SE,12.7,-,N/A,Fog,Fog,130,2013-05-27 11:17:00
5:52 AM,55.9,55.0,97,29.81,0.2,South,9.2,-,N/A,Fog,Fog,170,2013-05-27 11:52:00
6:39 AM,57.2,55.4,94,29.83,0.2,South,3.5,-,N/A,Fog,Fog,190,2013-05-27 12:39:00
6:52 AM,57.0,55.9,96,29.80,0.2,Calm,Calm,-,N/A,Fog,Fog,0,2013-05-27 12:52:00
7:06 AM,57.2,55.4,94,29.83,0.5,Calm,Calm,-,N/A,Fog,Fog,0,2013-05-27 13:06:00
7:21 AM,57.2,55.4,94,29.83,1.0,Calm,Calm,-,N/A,,Overcast,0,2013-05-27 13:21:00
7:52 AM,57.9,57.0,97,29.79,2.0,Calm,Calm,-,N/A,,Overcast,0,2013-05-27 13:52:00
7:59 AM,57.2,57.2,100,29.83,3.0,Calm,Calm,-,N/A,,Overcast,0,2013-05-27 13:59:00
8:52 AM,59.0,57.0,93,29.78,4.0,ESE,3.5,-,N/A,,Overcast,110,2013-05-27 14:52:00
9:38 AM,59.0,57.2,94,29.79,8.0,East,6.9,-,N/A,Thunderstorm,Overcast,100,2013-05-27 15:38:00
9:52 AM,59.0,57.9,96,29.78,8.0,SE,9.2,-,N/A,Thunderstorm,Overcast,140,2013-05-27 15:52:00
10:06 AM,57.2,57.2,100,29.81,2.5,SE,15.0,-,0.07,Rain-Thunderstorm,Heavy Thunderstorms and Rain,130,2013-05-27 16:06:00
10:21 AM,57.2,57.2,100,29.81,4.0,SE,16.1,-,0.23,Rain-Thunderstorm,Light Thunderstorms and Rain,130,2013-05-27 16:21:00
10:52 AM,57.9,55.9,93,29.78,6.0,SSE,13.8,-,0.24,,Overcast,150,2013-05-27 16:52:00
11:50 AM,66.2,59.0,78,29.78,10.0,South,16.1,20.7,0.00,,Overcast,170,2013-05-27 17:50:00
11:52 AM,66.0,59.0,78,29.73,10.0,South,15.0,20.7,0.00,,Overcast,180,2013-05-27 17:52:00
12:52 PM,66.9,57.9,73,29.71,10.0,SSW,15.0,23.0,N/A,,Overcast,210,2013-05-27 18:52:00
1:52 PM,69.1,60.1,73,29.67,10.0,South,15.0,-,N/A,,Overcast,180,2013-05-27 19:52:00
2:35 PM,69.8,60.8,73,29.71,10.0,SSW,17.3,-,N/A,,Mostly Cloudy,210,2013-05-27 20:35:00
2:52 PM,71.1,61.0,70,29.65,10.0,SW,15.0,-,N/A,,Partly Cloudy,220,2013-05-27 20:52:00
3:52 PM,62.1,53.1,72,29.67,10.0,NNW,26.5,34.5,N/A,,Mostly Cloudy,330,2013-05-27 21:52:00
4:10 PM,66.2,55.4,68,29.70,10.0,NNW,21.9,26.5,N/A,,Mostly Cloudy,330,2013-05-27 22:10:00
4:52 PM,66.0,54.0,65,29.64,10.0,NNW,24.2,33.4,N/A,,Clear,330,2013-05-27 22:52:00
5:52 PM,63.0,51.1,65,29.67,10.0,NNW,19.6,25.3,N/A,Thunderstorm,Overcast,330,2013-05-27 23:52:00
6:26 PM,60.8,53.6,77,29.68,10.0,North,13.8,-,0.00,Rain,Light Rain,350,2013-05-28 00:26:00
6:38 PM,59.0,53.6,82,29.71,9.0,North,15.0,-,0.01,Rain-Thunderstorm,Light Rain,10,2013-05-28 00:38:00
6:52 PM,57.9,54.0,87,29.66,10.0,NE,23.0,-,0.01,Rain-Thunderstorm,Light Rain,50,2013-05-28 00:52:00
7:08 PM,57.2,53.6,88,29.71,10.0,East,17.3,29.9,0.00,,Overcast,80,2013-05-28 01:08:00
7:52 PM,59.0,54.0,83,29.71,10.0,NW,10.4,-,0.00,,Scattered Clouds,310,2013-05-28 01:52:00
8:52 PM,55.0,50.0,83,29.72,10.0,NNW,23.0,28.8,N/A,,Clear,340,2013-05-28 02:52:00
9:52 PM,53.1,48.0,83,29.74,10.0,NNW,11.5,-,N/A,,Clear,330,2013-05-28 03:52:00
10:52 PM,52.0,46.9,83,29.74,10.0,NNW,9.2,-,N/A,,Clear,330,2013-05-28 04:52:00
11:52 PM,48.9,46.0,90,29.75,10.0,North,4.6,-,N/A,,Clear,10,2013-05-28 05:52:00